User: anonymous   Login
Location: Altmatt
(47.1333°N, 8.7000°E)
Time: 13:49:18
(UTC+00:00)
Language:

Sich 1 - Orbit

View from above orbital plane
View from above orbital plane
View from above satellite
View from above satellite

Ground track
Ground track

The orbit data is extracted from the following two-line orbital elements,

1 23657U 95046A   20274.88233009 +.00000240 +00000-0 +24359-4 0  9998
2 23657 082.5292 211.5762 0023638 064.6890 295.6772 14.86186202355630
Epoch (UTC): 30 September 2020 21:10:33
Eccentricity: 0.0023638
inclination: 82.5292°
perigee height: 593 km
apogee height: 626 km
right ascension of ascending node: 211.5762°
argument of perigee: 64.6890°
revolutions per day: 14.86186202
mean anomaly at epoch: 295.6772°
orbit number at epoch: 35563

The dashed part of the orbit path shows where the satellite is in the earth's shadow,  

DLR